This demonstration page uses our WeatherBlox Daily Observations layout. Learn more.

Left ArrowRight Arrow

39.92423, -83.80882

Hourly Observations for July 3, 2019

Temp ( °F °C ) Dew Point ( °F °C ) Humidity (%) Winds ( mph kmh ) Pressure ( in mb ) Visibility ( mi km ) Precip ( " mm )
12:56 am 00:56 Clear 74 23.3 70 21.1 88 88 SW 8 13 29.92 1013 10 16.0934 N/A
1:56 am 01:56 Clear 71 21.7 70 21.1 96 96 E 8 13 29.94 1014 10 16.0934 N/A
2:56 am 02:56 Clear 71 21.7 71 21.7 100 100 S 3 6 29.92 1013 10 16.0934 N/A
3:56 am 03:56 Mostly Cloudy 72 22.2 71 21.7 97 97 N N/A 29.92 1013 10 16.0934 N/A
4:31 am 04:31 Cloudy 72 22 72 22 100 100 NNW 7 11 29.93 1014 10 16.0934 N/A
4:56 am 04:56 Cloudy 72 22.2 70 21.1 94 94 N 7 11 29.95 1014 8 12.87472 N/A
5:56 am 05:56 Cloudy 71 21.7 69 20.6 94 94 NNE 7 11 29.96 1014 10 16.0934 0.04 1.016
6:56 am 06:56 Partly Cloudy 70 21.1 70 21.1 100 100 ESE 6 9 29.95 1014 10 16.0934 N/A
7:56 am 07:56 Sunny 73 22.8 71 21.7 94 94 SSE 7 11 29.94 1014 10 16.0934 N/A
8:56 am 08:56 Mostly Sunny 75 23.9 71 21.7 88 88 S 7 11 29.94 1014 10 16.0934 N/A
9:56 am 09:56 Sunny 77 25 71 21.7 82 82 S 10 17 29.94 1014 10 16.0934 N/A
10:56 am 10:56 Sunny 81 27.2 72 22.2 74 74 SSW 7 11 29.95 1014 10 16.0934 N/A
11:56 am 11:56 Sunny 83 28.3 73 22.8 72 72 SSW 7 11 29.96 1014 10 16.0934 N/A
12:56 pm 12:56 Mostly Sunny 84 28.9 73 22.8 70 70 SW 8 13 29.96 1014 10 16.0934 N/A
1:56 pm 13:56 Mostly Cloudy 85 29.4 74 23.3 70 70 SW 9 15 29.92 1013 10 16.0934 N/A
2:52 pm 14:52 Mostly Cloudy with Thunderstorms 79 26 70 21 74 74 WNW 18 30 29.88 1012 10 16.0934 N/A
2:56 pm 14:56 Mostly Cloudy with Light Thunderstorms 76 24.4 70 21.1 82 82 WNW 13 20 29.92 1013 10 16.0934 0.01 0.254
3:11 pm 15:11 Cloudy with Heavy Thunderstorms 72 22 70 21 94 94 WSW 12 19 29.92 1013 2 3.21868 0.2 5.08
3:24 pm 15:24 Cloudy with Heavy Thunderstorms 73 23 70 21 89 89 NW 5 7 29.92 1013 3 4.82802 0.44 11.176
3:34 pm 15:34 Cloudy with Thunderstorms 72 22 72 22 100 100 W 9 15 29.92 1013 8 12.87472 0.59 14.986
3:56 pm 15:56 Cloudy with Thunderstorms 72 22.2 69 20.6 91 91 W 14 22 29.93 1014 10 16.0934 0.8 20.32
4:37 pm 16:37 Cloudy with Nearby Thunderstorms 70 21 70 21 100 100 N N/A 29.91 1013 7 11.26538 0.09 2.286
4:56 pm 16:56 Mostly Cloudy with Light Rain 71 21.7 71 21.7 100 100 E 6 9 29.94 1014 10 16.0934 0.09 2.286
5:56 pm 17:56 Partly Cloudy with Light Rain 74 23.3 72 22.2 94 94 ESE 5 7 29.92 1013 10 16.0934 0.01 0.254
6:56 pm 18:56 Sunny 73 22.8 73 22.8 100 100 S 7 11 29.92 1013 10 16.0934 N/A
7:56 pm 19:56 Sunny 73 22.8 72 22.2 96 96 SSE 6 9 29.93 1014 10 16.0934 N/A
8:56 pm 20:56 Sunny 73 22.8 72 22.2 96 96 S 3 6 29.95 1014 10 16.0934 N/A
9:56 pm 21:56 Clear 72 22.2 72 22.2 100 100 N N/A 29.96 1015 10 16.0934 N/A
10:56 pm 22:56 Clear 71 21.7 71 21.7 100 100 N N/A 29.98 1015 10 16.0934 N/A
11:56 pm 23:56 Clear 69 20.6 69 20.6 100 100 E 3 6 29.98 1015 7 11.26538 N/A

Powered by AerisWeather